EST,Max TemperatureF,Mean TemperatureF,Min TemperatureF,Max Dew PointF,MeanDew PointF,Min DewpointF,Max Humidity, Mean Humidity, Min Humidity, Max Sea Level PressureIn, Mean Sea Level PressureIn, Min Sea Level PressureIn, Max VisibilityMiles, Mean VisibilityMiles, Min VisibilityMiles, Max Wind SpeedMPH, Mean Wind SpeedMPH, Max Gust SpeedMPH,PrecipitationIn, CloudCover, Events, WindDirDegrees
2011-11-1,48,42,35,34,32,30,82,69,56,30.38,30.36,30.32,10,10,10,10,5,17,0.00,0,,46
2011-11-2,53,44,34,34,33,31,89,67,44,30.42,30.34,30.24,10,10,10,10,3,15,0.00,0,,270
2011-11-3,56,48,39,41,38,33,89,70,51,30.22,30.04,29.91,10,10,6,18,10,24,0.00,0,,241
2011-11-4,47,40,32,41,29,18,82,57,31,30.25,30.04,29.89,10,10,10,23,12,32,0.00,1,,346
2011-11-5,48,40,31,23,20,14,63,45,26,30.48,30.40,30.24,10,10,10,12,6,17,0.00,0,,329
2011-11-6,53,43,32,35,24,18,76,51,26,30.51,30.43,30.33,10,10,10,20,12,25,0.00,0,,246
2011-11-7,61,49,37,38,36,33,92,64,36,30.30,30.26,30.21,10,10,10,20,10,25,0.00,0,,247
2011-11-8,67,57,47,48,45,38,86,67,48,30.28,30.24,30.20,10,10,10,12,7,16,0.00,0,,263
2011-11-9,66,59,51,51,48,39,100,72,43,30.23,30.15,30.05,10,10,6,14,8,18,0.00,2,,211
2011-11-10,60,54,48,57,55,45,100,95,89,30.04,29.80,29.53,10,3,0,21,6,28,0.82,8,Fog-Rain,112
2011-11-11,48,42,35,45,33,24,93,71,49,29.87,29.57,29.45,10,10,10,29,17,39,0.00,5,,290
2011-11-12,49,41,32,30,27,23,82,60,38,30.11,30.02,29.89,10,10,10,26,14,33,0.00,0,,234
2011-11-13,59,48,37,43,37,30,76,62,47,30.17,30.06,29.95,10,10,10,21,12,28,0.00,0,,217
2011-11-14,64,57,49,51,44,39,93,71,48,29.94,29.84,29.69,10,10,10,22,14,29,0.00,4,,220
2011-11-15,62,58,53,51,48,42,86,73,60,29.96,29.81,29.69,10,10,10,22,12,30,T,5,Rain,257
2011-11-16,57,54,50,54,51,42,100,83,66,29.97,29.80,29.71,10,5,0,12,5,17,0.47,7,Fog-Rain,267
2011-11-17,51,43,34,49,33,21,93,74,55,29.91,29.79,29.72,10,10,8,23,10,30,0.03,7,Rain-Snow,301
2011-11-18,40,35,29,23,21,19,72,58,44,30.40,30.23,29.94,10,10,10,24,12,32,0.00,1,,264
2011-11-19,51,42,32,39,24,19,76,53,29,30.38,30.31,30.22,10,10,10,25,18,36,0.00,0,,231
2011-11-20,62,54,45,45,41,35,83,67,51,30.19,30.08,30.00,10,10,10,23,13,29,0.00,2,,238
2011-11-21,54,44,33,38,32,25,82,64,45,30.36,30.26,30.09,10,10,10,20,6,25,0.00,2,,39
2011-11-22,45,38,30,36,31,27,100,83,65,30.41,30.32,30.15,10,9,2,10,3,14,0.18,6,Rain,112
2011-11-23,38,36,33,37,35,28,100,88,75,30.13,29.84,29.60,10,3,0,22,13,31,1.26,8,Fog-Rain,44
2011-11-24,42,36,30,31,29,27,92,76,60,30.17,30.10,29.97,10,10,9,16,8,23,0.00,0,,285
2011-11-25,56,46,35,37,35,32,89,70,50,30.12,30.07,30.02,10,10,10,22,14,28,0.00,0,,258
2011-11-26,60,53,46,36,34,32,60,50,40,30.21,30.15,30.04,10,10,10,15,9,22,0.00,0,,259
2011-11-27,53,47,40,49,40,32,100,75,50,30.22,30.16,30.09,10,10,9,15,5,21,0.00,0,,168
2011-11-28,63,57,50,50,49,48,93,77,60,30.14,30.11,30.07,10,10,10,25,14,37,0.00,1,,228
2011-11-29,63,57,51,58,54,49,100,84,67,30.12,29.95,29.66,10,8,1,22,9,26,1.04,8,Rain,153
2011-11-30,61,51,40,61,44,30,100,78,56,29.85,29.66,29.61,10,9,1,25,14,37,0.47,7,Rain,220